This is the latest recevied weather packets stored in our database for station/object K5WNG. If no packets are shown the sender has not sent any weather packets the latest 10 day(s).
| Time | Temp. | Humidity | Pressure | Rain* | Wind** | Luminosity | Snow |
|---|---|---|---|---|---|---|---|
| 1777842019 | 27.78° C | 38% | 1018.9 hPa | 0 mm | - | 732 W/m² | - |
| 1777841717 | 27.78° C | 39% | 1019 hPa | 0 mm | - | 810 W/m² | - |
| 1777841417 | 27.78° C | 39% | 1019 hPa | 0 mm | - | 853 W/m² | - |
| 1777841117 | 27.78° C | 38% | 1019 hPa | 0 mm | - | 872 W/m² | - |
| 1777840817 | 27.78° C | 38% | 1019.2 hPa | 0 mm | - | 882 W/m² | - |
| 1777840517 | 27.78° C | 39% | 1019.4 hPa | 0 mm | - | 912 W/m² | - |
| 1777840222 | 27.78° C | 40% | 1019.4 hPa | 0 mm | - | 940 W/m² | - |
| 1777839917 | 27.78° C | 39% | 1019.5 hPa | 0 mm | - | 598 W/m² | - |
| 1777839617 | 27.78° C | 39% | 1019.7 hPa | 0 mm | - | 951 W/m² | - |
| 1777839318 | 27.78° C | 39% | 1019.6 hPa | 0 mm | - | 956 W/m² | - |
| 1777839018 | 27.78° C | 38% | 1019.7 hPa | 0 mm | - | 978 W/m² | - |
| 1777838720 | 27.78° C | 39% | 1019.8 hPa | 0 mm | - | 974 W/m² | - |
| 1777838421 | 27.78° C | 39% | 1020 hPa | 0 mm | - | 985 W/m² | - |
| 1777838118 | 27.78° C | 40% | 1019.9 hPa | 0 mm | - | 994 W/m² | - |
| 1777837821 | 27.78° C | 39% | 1020 hPa | 0 mm | - | 1005 W/m² | - |
| 1777837518 | 27.22° C | 40% | 1020 hPa | 0 mm | - | 1005 W/m² | - |
| 1777837221 | 27.22° C | 38% | 1020 hPa | 0 mm | - | 1016 W/m² | - |
| 1777836919 | 27.78° C | 39% | 1020.1 hPa | 0 mm | - | 1030 W/m² | - |
| 1777836618 | 27.22° C | 39% | 1020.3 hPa | 0 mm | - | 1036 W/m² | - |
| 1777836315 | 27.22° C | 38% | 1020.3 hPa | 0 mm | - | 1044 W/m² | - |
| 1777836024 | 27.78° C | 38% | 1020.3 hPa | 0 mm | - | 1047 W/m² | - |
| 1777835716 | 27.22° C | 41% | 1020.4 hPa | 0 mm | - | 1056 W/m² | - |
| 1777835416 | 27.22° C | 39% | 1020.4 hPa | 0 mm | - | 1059 W/m² | - |
| 1777835115 | 27.22° C | 39% | 1020.6 hPa | 0 mm | - | 1059 W/m² | - |
| 1777834819 | 27.22° C | 41% | 1020.7 hPa | 0 mm | - | 1068 W/m² | - |
* Rain latest hour (hover to see other rain measurements)
** Current wind speed in m/s (hover to see current wind gust speed)